Wind_Speed
15 15 15 14 15 14 12 12 11 12 12 11 11 10 10 10 9 8 8 8 8 8 7 7 8 8 8 8 8 7 8 8 8 8 8 8 8 9 8 8 7 7 7 7 6 6 6 5 6
15 15 15 15 15 13 12 12 12 12 12 12 11 11 11 10 9 9 9 8 8 8 8 9 8 8 8 8 9 8 8 8 8 8 7 7 7 8 8 7 7 7 7 6 6 6 6 6 7
14 15 16 16 14 13 13 13 14 14 13 12 12 12 12 11 10 9 9 8 8 8 8 9 8 8 8 8 8 9 9 9 8 8 7 7 7 7 7 7 7 7 7 6 6 6 6 7 7
13 14 16 15 14 13 13 13 14 14 13 13 13 13 13 12 11 10 9 9 8 8 8 8 8 8 8 8 8 9 9 9 8 8 8 7 7 7 7 6 6 6 6 6 6 6 6 7 8
14 15 15 14 14 14 13 13 14 14 13 13 12 13 12 12 11 10 10 9 8 8 8 8 8 7 8 8 9 8 8 8 8 8 7 7 7 6 7 6 6 6 6 6 6 6 7 8 8
15 15 14 13 13 14 13 14 14 13 12 12 12 12 11 11 11 10 10 9 8 7 8 8 7 7 7 8 8 8 8 8 7 7 7 7 6 6 6 6 5 5 6 6 6 7 7 8 8
15 15 15 14 14 14 14 14 14 13 13 12 12 12 12 11 11 10 9 8 8 7 7 7 7 8 8 8 8 7 7 7 7 7 7 7 7 6 6 5 5 4 5 5 7 8 8 8 8
14 14 13 13 14 14 14 15 15 14 14 14 14 13 12 11 10 10 9 8 8 7 7 8 8 9 8 8 8 7 7 7 7 7 7 7 6 6 5 5 4 4 4 4 5 7 9 8 7
13 12 12 13 14 14 14 15 15 15 14 14 14 13 11 10 10 9 9 8 8 8 8 8 9 9 8 8 8 7 6 6 7 7 7 6 6 5 5 5 5 5 4 4 4 6 9 8 6
12 11 12 13 13 13 14 15 15 15 14 14 13 14 12 10 10 10 9 9 9 9 9 9 9 8 8 8 7 7 6 6 6 6 6 5 5 5 5 5 5 4 4 4 5 6 7 6 5
10 11 11 12 13 13 14 14 14 14 14 14 14 13 13 11 10 10 9 10 9 9 10 10 9 8 7 7 7 6 6 5 5 5 4 4 4 5 5 4 4 3 3 3 4 5 5 4 4
9 10 10 11 11 12 13 13 13 14 13 14 14 13 12 11 11 10 11 10 10 9 9 9 9 8 7 7 6 6 5 5 5 5 4 4 5 5 5 5 4 4 4 3 3 3 4 4 4
8 9 9 9 10 11 12 12 12 13 13 13 13 12 12 11 10 10 10 10 9 9 9 8 8 8 7 7 6 6 5 5 5 5 6 5 5 5 5 5 5 4 3 3 2 2 3 4 4
7 7 8 9 9 10 10 11 11 12 12 12 12 12 12 11 10 9 9 9 9 8 8 8 7 7 7 6 6 6 6 6 6 6 6 6 5 5 5 5 5 4 3 3 2 1 2 2 3
5 6 7 7 8 8 9 10 10 10 10 11 11 10 11 10 10 10 10 8 8 8 8 8 7 7 6 6 6 7 7 7 7 7 7 6 5 4 4 4 4 3 2 2 2 2 2 1 2
3 4 4 5 7 7 7 8 9 9 9 9 10 9 9 9 9 9 10 9 8 7 7 7 8 7 6 6 6 6 7 7 7 7 7 6 5 5 4 4 3 3 1 1 1 1 1 2 2
2 2 1 2 4 5 6 6 8 8 8 8 8 8 8 8 8 9 9 9 8 8 7 7 7 6 6 6 6 6 6 6 6 6 6 5 5 4 4 3 3 2 2 2 2 1 2 1 2
2 1 1 0 2 3 4 5 6 7 6 7 7 7 7 7 7 7 8 8 8 7 7 7 6 6 6 6 5 5 5 6 5 6 5 4 3 3 3 3 2 2 2 2 2 2 2 2 3
5 3 2 2 1 2 3 3 4 5 6 6 6 6 6 7 6 6 6 7 7 7 7 7 6 6 5 5 5 5 5 5 5 5 5 4 3 2 2 2 1 1 1 1 2 3 3 4 4
7 5 4 3 2 1 2 3 3 5 5 5 5 5 5 6 5 5 5 6 6 7 6 6 6 6 5 5 5 4 4 4 4 4 3 3 2 2 2 2 1 1 1 1 2 3 4 4 5
9 8 6 5 3 3 2 3 4 5 5 5 4 4 4 4 4 4 4 5 6 6 6 6 5 5 5 5 5 5 4 4 3 3 3 3 2 1 1 1 1 2 2 2 2 3 4 4 4
11 10 9 7 5 5 3 2 5 5 5 5 5 4 4 3 3 3 4 4 5 5 5 5 5 5 5 5 4 4 4 4 4 3 3 2 2 1 1 1 2 2 3 3 3 4 4 4 4
14 13 10 9 8 6 5 4 5 6 5 5 5 5 4 3 3 3 3 4 4 4 4 4 4 4 4 4 3 3 3 4 4 3 3 2 1 1 1 2 2 3 4 4 4 4 4 4 4
16 13 12 10 8 9 7 5 6 7 6 5 5 5 4 4 3 3 3 4 4 3 3 4 4 3 3 3 3 3 3 3 3 3 2 2 1 1 1 2 3 3 4 5 4 4 4 4 5
17 14 12 11 11 11 10 8 7 7 6 6 6 6 5 5 4 4 4 4 3 2 2 3 3 3 3 3 3 3 2 2 2 2 2 2 3 2 2 3 3 3 4 4 4 5 5 5 5
18 16 15 14 12 12 13 11 9 8 8 7 7 7 6 6 5 6 6 6 4 3 3 3 3 3 3 2 2 2 2 2 2 2 3 3 3 3 3 4 4 4 5 5 5 5 6 7 7
20 18 16 16 15 13 14 13 12 10 9 8 8 8 7 7 6 6 7 7 6 5 4 4 4 3 3 3 2 2 2 2 3 3 4 4 4 5 5 5 5 6 6 6 7 7 7 8 8
22 20 19 18 17 16 16 15 13 13 12 11 10 9 9 9 8 8 8 8 7 7 6 5 5 5 5 4 4 4 4 4 4 4 5 5 6 6 6 7 7 7 7 7 7 7 8 8 9
22 21 20 20 20 18 17 17 17 16 14 13 12 12 11 11 10 10 9 9 8 8 8 7 7 7 7 6 6 6 6 6 6 6 6 7 7 7 7 7 7 8 8 9 9 9 8 9 9
23 23 22 21 21 20 19 18 19 17 16 15 14 13 13 13 12 12 11 11 10 10 10 9 9 9 9 9 8 8 8 7 7 8 8 8 8 7 7 7 8 8 9 9 9 9 10 11 11
Wind_Direction
72 70 68 72 69 67 67 68 70 71 74 77 78 81 86 91 92 97 110 118 126 129 132 132 129 129 130 129 126 125 125 134 133 133 133 131 134 142 144 144 144 148 149 151 150 151 156 162 167
71 68 68 70 70 68 67 69 71 72 74 77 80 82 84 86 89 94 102 109 119 127 132 132 135 132 129 126 125 127 124 129 133 134 135 138 140 143 146 147 147 153 153 153 155 157 154 158 166
70 67 69 70 69 70 70 71 70 72 74 77 78 81 80 80 89 92 97 102 108 120 129 133 135 133 129 122 121 124 124 126 128 131 133 138 144 148 150 152 154 157 158 157 160 164 159 162 169
70 71 70 69 68 67 69 71 69 70 72 77 77 76 76 77 81 87 91 96 105 115 121 128 129 128 127 122 122 125 125 126 127 132 134 137 145 153 154 155 160 161 161 160 161 164 163 163 167
71 71 69 65 67 68 69 68 68 66 66 71 74 74 72 74 78 82 88 96 100 110 117 119 125 128 125 123 125 129 129 130 132 133 133 132 134 142 155 158 163 166 168 167 169 164 166 168 173
69 70 72 68 64 66 67 65 66 67 65 64 68 72 71 72 78 82 85 93 98 104 111 116 123 124 122 125 125 129 128 131 137 140 132 133 133 137 144 151 159 171 175 176 177 177 174 172 179
72 70 68 65 63 61 62 60 64 66 66 66 66 69 69 73 78 82 85 90 95 101 104 113 119 118 119 122 123 123 127 133 135 136 136 134 134 135 137 141 149 157 166 177 183 184 180 183 183
72 67 65 64 62 60 62 60 63 67 67 67 68 68 69 70 75 76 78 82 89 92 94 97 112 118 119 119 122 124 125 131 136 134 136 135 136 135 133 133 139 146 155 170 183 189 188 189 189
73 68 65 64 60 59 61 63 65 66 65 64 65 66 67 69 74 78 79 82 86 90 92 97 102 108 116 119 122 123 126 130 133 133 133 137 136 133 135 132 130 138 142 151 170 180 186 192 194
74 71 66 62 59 58 62 65 64 64 63 61 62 65 67 70 77 80 80 84 86 88 91 99 100 102 110 117 119 118 119 126 129 133 130 133 141 145 148 144 137 138 133 138 155 168 177 185 193
75 72 70 64 60 59 64 63 63 63 61 59 60 65 68 70 73 80 85 86 85 89 96 103 100 98 104 114 116 114 116 118 124 127 134 142 150 157 156 152 151 137 130 132 149 163 175 192 206
76 71 71 65 61 59 62 63 60 62 62 60 59 62 68 72 74 81 84 85 83 88 96 102 99 98 103 108 112 111 114 112 118 123 134 142 146 149 147 144 145 139 137 143 161 187 200 217 226
77 70 71 67 61 61 63 61 58 61 62 61 61 62 63 67 72 80 84 82 84 88 93 94 99 96 95 99 105 108 113 117 122 124 120 123 126 138 145 146 143 137 140 160 174 213 230 240 242
82 77 72 66 61 61 61 60 55 59 62 61 59 59 56 56 62 77 81 77 81 84 90 93 99 97 92 91 101 107 108 113 116 115 113 114 122 132 141 151 149 146 151 170 195 234 242 248 253
91 81 69 67 61 57 58 55 53 56 60 60 57 55 52 54 60 71 72 74 73 74 81 83 96 94 89 92 104 102 104 107 111 111 110 108 112 120 129 149 150 151 164 195 228 247 235 233 247
92 82 64 57 54 49 53 50 49 53 56 56 54 54 53 52 57 63 66 67 69 69 76 80 83 90 89 91 100 100 105 104 107 110 108 111 109 117 124 135 143 154 176 227 237 244 243 248 243
82 96 100 51 50 46 48 45 42 46 49 50 51 52 52 55 60 62 61 61 59 60 69 74 76 83 90 97 96 100 106 105 110 115 115 112 108 114 129 132 140 154 191 223 251 256 265 275 277
193 189 237 263 34 26 35 37 32 37 39 42 46 47 48 53 57 60 57 53 51 50 59 67 69 80 93 100 99 103 109 110 113 117 114 108 113 125 143 146 150 176 207 243 256 259 274 290 297
207 206 235 244 302 356 12 22 22 26 30 31 36 37 41 48 51 52 50 46 46 46 51 67 72 74 83 93 96 99 110 112 115 119 118 115 116 127 144 145 143 196 238 275 277 282 282 295 298
219 226 246 247 259 314 348 7 11 10 8 11 21 25 30 38 46 44 41 37 40 42 43 59 62 63 76 83 91 96 104 112 114 115 107 103 108 124 151 164 163 244 254 278 290 294 299 298 294
227 233 248 263 271 291 326 347 347 356 353 354 356 4 13 18 26 33 38 38 38 43 40 47 52 57 66 77 82 84 90 99 102 104 97 86 83 117 157 198 270 290 279 290 295 298 299 295 297
233 239 246 257 265 279 287 299 314 330 339 340 342 346 350 354 4 13 24 32 39 42 41 46 55 57 61 74 86 88 86 92 92 88 88 85 87 90 72 354 330 320 317 308 301 298 298 299 301
232 237 243 251 259 266 272 270 290 305 320 327 329 329 331 337 348 353 354 7 20 32 38 41 50 54 54 57 74 91 87 94 86 75 76 73 59 30 14 3 354 336 332 324 312 305 306 303 301
233 238 244 248 251 257 259 259 267 286 306 313 314 311 316 317 313 320 331 341 353 13 27 31 36 47 48 50 58 82 92 87 71 58 56 40 7 347 343 346 349 343 335 330 324 312 309 307 304
234 236 244 247 250 255 255 255 256 274 288 296 295 293 296 299 295 292 303 311 321 335 358 9 15 23 29 41 56 67 73 55 41 32 26 8 352 345 349 358 350 344 337 329 319 308 308 307 303
234 233 236 242 247 256 260 256 258 268 274 278 279 283 288 288 288 283 287 293 294 296 300 323 342 355 4 14 31 44 22 356 358 2 351 340 340 336 337 342 342 342 341 338 328 311 306 303 303
234 233 237 243 246 248 256 263 266 264 266 268 269 273 282 281 281 279 281 283 281 283 283 292 309 319 330 340 340 329 327 328 322 324 335 330 324 321 319 322 329 337 337 332 327 318 313 303 303
235 238 238 239 244 249 256 262 263 261 262 266 263 262 273 277 278 277 275 273 273 277 279 282 295 300 309 317 320 314 310 309 317 318 317 325 322 318 319 319 318 327 328 330 328 323 317 309 305
237 237 239 244 246 247 253 258 261 261 260 261 260 260 264 269 271 273 273 268 264 268 274 277 284 288 293 300 302 300 302 304 305 309 309 311 318 318 318 315 318 322 323 323 321 321 320 315 309
238 239 241 245 251 249 249 256 261 262 260 259 258 259 258 260 263 265 265 263 262 263 267 272 277 281 285 290 293 292 295 297 297 300 303 306 305 316 314 310 312 318 318 317 317 318 314 312 311
Height
5889 5888 5887 5887 5887 5887 5886 5884 5882 5881 5879 5878 5877 5876 5876 5876 5876 5877 5874 5873 5873 5873 5873 5873 5874 5874 5875 5875 5875 5875 5876 5877 5877 5878 5878 5878 5879 5879 5880 5881 5881 5882 5882 5883 5883 5884 5885 5885 5885
5891 5890 5890 5889 5889 5889 5888 5886 5884 5882 5881 5880 5878 5878 5877 5876 5876 5875 5874 5873 5874 5874 5874 5874 5874 5875 5875 5875 5876 5876 5876 5877 5878 5878 5879 5879 5880 5880 5881 5881 5881 5882 5883 5883 5884 5884 5885 5886 5886
5893 5892 5892 5892 5891 5891 5889 5887 5885 5883 5882 5881 5880 5879 5878 5877 5876 5875 5875 5875 5874 5874 5875 5875 5875 5875 5876 5876 5876 5877 5877 5878 5878 5879 5879 5880 5880 5881 5881 5882 5882 5882 5883 5884 5884 5885 5885 5886 5886
5895 5895 5895 5895 5893 5892 5890 5889 5887 5885 5884 5882 5881 5880 5879 5878 5877 5877 5876 5876 5876 5876 5876 5876 5877 5876 5876 5877 5877 5878 5878 5879 5879 5879 5880 5880 5881 5881 5882 5882 5882 5883 5884 5884 5885 5885 5886 5886 5887
5897 5897 5898 5897 5895 5894 5892 5890 5888 5887 5885 5884 5882 5881 5880 5879 5878 5878 5877 5877 5877 5877 5877 5877 5877 5878 5878 5878 5878 5878 5879 5879 5880 5880 5880 5881 5881 5882 5882 5882 5883 5883 5883 5884 5885 5885 5886 5887 5887
5899 5899 5900 5899 5897 5895 5894 5892 5890 5888 5887 5885 5884 5883 5882 5881 5880 5880 5879 5879 5878 5878 5878 5878 5878 5878 5878 5879 5879 5880 5880 5880 5880 5881 5881 5881 5882 5882 5883 5883 5883 5883 5883 5884 5884 5885 5886 5887 5888
5902 5902 5901 5900 5898 5897 5896 5893 5892 5890 5889 5887 5886 5884 5883 5882 5882 5881 5881 5880 5880 5880 5879 5879 5879 5879 5880 5880 5880 5880 5880 5881 5881 5881 5882 5882 5882 5883 5883 5884 5883 5883 5883 5883 5884 5884 5885 5886 5887
5903 5904 5903 5902 5900 5899 5897 5895 5893 5892 5890 5889 5888 5886 5885 5884 5884 5883 5882 5882 5881 5881 5881 5880 5880 5880 5881 5881 5881 5881 5881 5882 5882 5882 5883 5883 5883 5883 5884 5884 5884 5883 5883 5883 5882 5881 5884 5886 5887
5905 5907 5905 5903 5902 5900 5898 5897 5895 5894 5892 5891 5889 5888 5887 5886 5885 5884 5884 5883 5883 5882 5882 5882 5881 5881 5882 5882 5882 5882 5882 5882 5883 5883 5883 5884 5884 5884 5884 5884 5884 5884 5884 5883 5881 5879 5881 5885 5887
5907 5908 5907 5905 5903 5902 5900 5899 5897 5896 5894 5893 5891 5890 5889 5888 5886 5886 5885 5885 5884 5883 5883 5883 5883 5883 5883 5883 5883 5883 5883 5883 5883 5883 5884 5884 5884 5884 5884 5885 5885 5884 5884 5884 5882 5881 5882 5885 5886
5909 5909 5908 5906 5905 5904 5902 5901 5899 5898 5897 5895 5893 5892 5890 5889 5888 5888 5887 5886 5886 5885 5885 5885 5885 5884 5884 5884 5884 5884 5884 5884 5884 5884 5884 5884 5884 5884 5885 5885 5885 5885 5885 5885 5884 5884 5885 5886 5886
5911 5910 5909 5908 5907 5906 5904 5903 5902 5900 5899 5897 5896 5894 5893 5891 5890 5890 5889 5888 5887 5887 5887 5886 5886 5886 5885 5885 5885 5884 5884 5884 5884 5884 5884 5884 5884 5885 5885 5886 5886 5886 5886 5886 5886 5886 5886 5886 5887
5912 5911 5910 5910 5909 5907 5906 5905 5904 5902 5901 5899 5898 5896 5895 5893 5892 5891 5891 5890 5889 5888 5888 5888 5887 5887 5886 5886 5885 5885 5885 5884 5884 5884 5884 5885 5885 5885 5886 5886 5887 5887 5887 5887 5887 5887 5887 5886 5886
5913 5912 5912 5911 5910 5909 5908 5907 5906 5905 5903 5902 5900 5899 5897 5895 5894 5893 5892 5892 5891 5890 5890 5889 5888 5888 5887 5887 5886 5885 5885 5885 5885 5885 5885 5885 5886 5886 5886 5887 5887 5887 5887 5887 5887 5887 5887 5886 5886
5914 5914 5914 5913 5912 5911 5911 5909 5908 5906 5905 5904 5902 5901 5899 5898 5897 5895 5894 5894 5893 5892 5891 5890 5889 5889 5888 5888 5887 5886 5886 5886 5886 5886 5886 5886 5886 5886 5887 5887 5887 5887 5887 5887 5887 5887 5887 5886 5887
5914 5915 5916 5915 5913 5913 5913 5912 5910 5908 5907 5906 5904 5903 5902 5900 5899 5897 5896 5895 5895 5894 5893 5892 5891 5890 5889 5889 5888 5888 5887 5887 5887 5887 5887 5887 5887 5887 5887 5887 5887 5887 5887 5887 5887 5887 5887 5887 5887
5915 5916 5916 5916 5914 5914 5914 5913 5912 5910 5909 5907 5906 5905 5904 5902 5901 5899 5898 5898 5896 5895 5894 5893 5892 5891 5890 5890 5889 5888 5888 5888 5887 5887 5888 5888 5888 5888 5888 5888 5888 5888 5888 5887 5887 5887 5887 5887 5887
5916 5916 5916 5916 5915 5914 5914 5914 5913 5911 5910 5909 5908 5906 5905 5904 5903 5902 5900 5899 5898 5897 5896 5894 5893 5892 5891 5891 5890 5889 5889 5889 5888 5888 5888 5888 5888 5888 5888 5888 5888 5888 5887 5887 5887 5887 5887 5886 5886
5915 5916 5916 5916 5915 5915 5914 5914 5913 5912 5911 5910 5909 5908 5907 5906 5905 5903 5902 5901 5900 5898 5897 5896 5895 5893 5892 5892 5891 5891 5890 5890 5890 5889 5890 5889 5889 5889 5889 5889 5888 5888 5887 5887 5887 5886 5886 5886 5885
5914 5915 5915 5915 5915 5915 5914 5914 5914 5913 5912 5911 5910 5909 5907 5906 5906 5905 5903 5902 5901 5900 5898 5897 5896 5895 5893 5893 5892 5892 5891 5891 5891 5891 5890 5890 5890 5889 5889 5889 5888 5888 5887 5887 5887 5886 5885 5885 5885
5912 5914 5914 5914 5914 5914 5915 5915 5914 5914 5912 5912 5910 5909 5908 5907 5906 5905 5904 5903 5902 5901 5900 5898 5897 5896 5894 5893 5893 5892 5892 5892 5892 5891 5891 5891 5890 5890 5889 5888 5888 5888 5887 5887 5886 5886 5885 5884 5884
5910 5911 5912 5913 5914 5915 5915 5916 5915 5913 5913 5912 5910 5909 5909 5908 5907 5906 5905 5904 5903 5902 5901 5899 5898 5897 5895 5894 5894 5893 5893 5893 5892 5892 5892 5891 5890 5890 5889 5889 5887 5887 5886 5886 5885 5885 5884 5884 5883
5908 5909 5910 5911 5912 5914 5914 5915 5916 5913 5912 5911 5910 5909 5908 5908 5907 5906 5906 5905 5904 5903 5901 5900 5899 5898 5897 5895 5895 5894 5894 5893 5893 5892 5892 5891 5891 5890 5889 5888 5888 5887 5886 5885 5885 5884 5883 5883 5882
5904 5906 5908 5909 5911 5912 5912 5913 5915 5912 5912 5911 5910 5909 5908 5908 5907 5906 5906 5905 5904 5903 5902 5901 5900 5899 5897 5896 5895 5895 5895 5894 5894 5893 5892 5892 5891 5890 5889 5888 5888 5887 5886 5885 5884 5883 5882 5882 5881
5901 5905 5907 5908 5909 5911 5910 5911 5912 5911 5910 5910 5909 5908 5908 5907 5907 5906 5906 5905 5904 5903 5903 5901 5900 5899 5898 5897 5896 5896 5895 5895 5894 5893 5893 5892 5891 5890 5889 5888 5887 5886 5885 5884 5883 5882 5882 5881 5880
5898 5902 5905 5907 5909 5909 5907 5908 5909 5909 5908 5908 5907 5907 5906 5906 5906 5906 5905 5904 5904 5903 5902 5902 5901 5900 5899 5898 5897 5896 5896 5895 5894 5893 5893 5892 5891 5890 5889 5888 5887 5886 5885 5883 5882 5881 5881 5880 5879
5894 5897 5900 5902 5903 5905 5906 5905 5906 5905 5906 5905 5905 5905 5905 5905 5905 5904 5904 5903 5903 5902 5902 5901 5900 5900 5899 5898 5897 5896 5896 5895 5894 5893 5892 5891 5890 5889 5888 5888 5886 5885 5883 5882 5881 5880 5879 5878 5877
5890 5892 5895 5897 5899 5901 5903 5902 5904 5902 5903 5903 5903 5903 5903 5903 5903 5902 5902 5902 5901 5901 5901 5900 5900 5899 5898 5897 5897 5896 5895 5895 5894 5893 5892 5891 5890 5889 5888 5887 5885 5884 5882 5881 5880 5879 5878 5877 5876
5885 5887 5889 5892 5894 5897 5899 5902 5899 5899 5899 5900 5900 5901 5901 5900 5900 5900 5900 5899 5899 5899 5899 5899 5898 5898 5897 5896 5896 5895 5894 5894 5893 5892 5891 5890 5888 5887 5886 5885 5884 5883 5881 5880 5879 5877 5876 5875 5874
5879 5881 5884 5887 5888 5890 5894 5898 5893 5894 5895 5896 5897 5897 5897 5897 5897 5897 5897 5897 5897 5897 5897 5896 5896 5896 5895 5895 5894 5894 5893 5892 5891 5890 5889 5888 5887 5885 5884 5883 5882 5881 5880 5878 5877 5876 5874 5873 5872